FW0155 Weather Reports


time (UTC)temp
C
wind
direction
speed
KPH
gust
KPH
rain 1hr
cm
rain 24hr
cm
rain mn
cm
humidity
%
barometer
mb
20260506143205 10 256 0.0 3.2 0.00 0.64 0.64 84 1013.0
20260506142206 10 268 1.6 3.2 0.00 0.64 0.64 83 1013.0
20260506141207 10 269 0.0 3.2 0.00 0.64 0.64 83 1012.9
20260506140206 10 289 1.6 3.2 0.00 0.64 0.64 83 1013.0
20260506135204 10 270 0.0 3.2 0.03 0.64 0.64 84 1013.1
20260506133203 10 291 1.6 4.8 0.05 0.64 0.64 85 1013.0
20260506132202 10 286 0.0 4.8 0.05 0.64 0.64 86 1013.1
20260506131202 10 275 0.0 3.2 0.05 0.64 0.64 87 1013.1
20260506130202 10 286 0.0 3.2 0.05 0.64 0.64 86 1013.1
20260506125202 10 282 0.0 3.2 0.03 0.61 0.61 85 1013.0
20260506124646 10 315 0.0 4.8 0.00 0.58 0.58 82 1012.9
20260506123201 10 296 0.0 3.2 0.03 0.58 0.58 83 1012.9
20260506122200 10 94 0.0 4.8 0.05 0.58 0.58 84 1013.0
20260506121642 10 284 0.0 1.6 0.05 0.58 0.58 86 1013.1
20260506120200 10 284 0.0 3.2 0.13 0.58 0.58 86 1012.9
20260506115642 10 263 0.0 3.2 0.15 0.58 0.58 88 1013.0
20260506114637 10 238 0.0 1.6 0.15 0.56 0.58 88 1013.0
20260506113158 10 286 0.0 1.6 0.18 0.56 0.56 88 1013.1
20260506112157 10 286 0.0 4.8 0.20 0.53 0.53 88 1012.9
20260506111157 10 287 0.0 3.2 0.25 0.53 0.53 89 1013.0
20260506110157 9 285 0.0 3.2 0.20 0.46 0.48 88 1013.0
20260506105157 10 292 1.6 4.8 0.18 0.43 0.43 88 1012.9
20260506104158 10 307 1.6 4.8 0.15 0.41 0.41 89 1013.0
20260506103126 9 267 0.0 11.3 0.13 0.38 0.38 89 1012.8
20260506102606 9 303 3.2 9.7 0.08 0.33 0.33 88 1012.7
20260506101126 10 282 1.6 11.3 0.03 0.28 0.28 86 1012.8
20260506100126 10 355 6.4 12.9 0.00 0.25 0.25 84 1012.8
20260506095610 10 334 3.2 11.3 0.00 0.25 0.25 82 1012.4
20260506094124 10 306 4.8 12.9 0.00 0.25 0.25 82 1012.3
20260506093123 10 70 0.0 11.3 0.00 0.25 0.25 83 1012.4
20260506092603 10 39 3.2 6.4 0.03 0.25 0.25 84 1012.5
20260506091535 10 283 1.6 12.9 0.05 0.25 0.25 84 1012.5
20260506085051 10 264 1.6 11.3 0.05 0.25 0.25 85 1012.5
20260506084052 10 87 0.0 11.3 0.10 0.25 0.25 87 1012.3
20260506083051 9 287 1.6 12.9 0.13 0.25 0.25 88 1012.2
20260506082051 10 278 3.2 11.3 0.18 0.23 0.23 88 1012.2
20260506081050 9 0 3.2 16.1 0.15 0.20 0.20 90 1012.2
20260506072048 9 32 1.6 9.7 0.03 0.05 0.05 87 1012.0
20260506071049 8 346 3.2 9.7 0.05 0.05 0.05 89 1011.9
20260506062046 8 281 1.6 3.2 0.03 0.03 0.03 90 1011.8
20260506061046 7 281 0.0 4.8 0.00 0.00 0.03 90 1011.7
20260506051015 6 279 1.6 4.8 0.00 0.00 0.00 91 1011.8
20260506044012 6 153 0.0 1.6 0.00 0.00 0.00 91 1011.4
20260506043011 6 131 0.0 3.2 0.00 0.00 0.00 91 1011.5
20260506042011 5 235 0.0 3.2 0.00 0.00 0.00 91 1011.6
20260506041449 5 248 0.0 1.6 0.00 0.00 0.00 90 1011.7
20260506040010 6 223 1.6 3.2 0.00 0.00 0.00 90 1011.6
20260506035010 6 223 0.0 3.2 0.00 0.00 0.00 90 1011.7
20260506033939 6 240 0.0 3.2 0.00 0.00 0.00 90 1011.7
20260506032423 6 252 0.0 3.2 0.00 0.00 0.00 89 1011.9
20260506030938 6 252 0.0 3.2 0.00 0.00 0.00 89 1011.9
20260506024939 6 253 0.0 3.2 0.00 0.00 0.00 89 1012.1
20260506022937 6 269 0.0 1.6 0.00 0.00 0.00 88 1012.4
20260506021936 6 269 0.0 3.2 0.00 0.00 0.00 88 1012.4
20260506020936 6 320 0.0 1.6 0.00 0.00 0.00 88 1012.3
20260506015935 6 320 0.0 1.6 0.00 0.00 0.00 87 1012.2
20260506014935 6 320 0.0 1.6 0.00 0.00 0.00 87 1012.5
20260506013906 6 320 0.0 3.2 0.00 0.00 0.00 86 1012.3
20260506012904 7 320 0.0 1.6 0.00 0.00 0.00 86 1012.4
20260506011904 7 320 0.0 1.6 0.00 0.00 0.00 85 1012.4
20260506010905 7 324 0.0 3.2 0.00 0.00 0.00 85 1012.9
20260506005903 7 323 1.6 3.2 0.00 0.00 0.00 85 1012.7
20260506004903 7 31 0.0 4.8 0.00 0.00 0.00 84 1012.8
20260506004349 7 321 0.0 3.2 0.00 0.00 0.00 84 1012.6
20260506002901 7 32 1.6 4.8 0.00 0.00 0.00 84 1012.7
20260506001901 8 321 1.6 3.2 0.00 0.00 0.00 83 1012.7
20260506000833 8 23 1.6 3.2 0.00 0.00 0.00 83 1012.9
20260505235831 8 321 0.0 4.8 0.00 0.00 0.00 83 1013.0
20260505234830 8 323 0.0 3.2 0.00 0.00 0.00 84 1013.1
20260505233831 8 310 0.0 3.2 0.00 0.00 0.00 84 1013.1
20260505232831 8 317 0.0 3.2 0.00 0.00 0.00 83 1013.2
20260505231829 8 354 0.0 3.2 0.00 0.00 0.00 83 1013.2
20260505230834 8 343 0.0 3.2 0.00 0.00 0.00 83 1013.3
20260505225828 9 342 1.6 6.4 0.00 0.00 0.00 82 1013.4
20260505224828 9 322 1.6 6.4 0.00 0.00 0.00 82 1013.4
20260505223827 9 14 1.6 3.2 0.00 0.00 0.00 82 1013.4
20260505223307 9 317 0.0 4.8 0.00 0.00 0.00 83 1013.5
20260505221827 8 302 0.0 3.2 0.00 0.00 0.00 83 1013.5
20260505220826 8 286 0.0 3.2 0.00 0.00 0.00 84 1013.5
20260505215756 8 275 1.6 6.4 0.00 0.00 0.00 84 1013.4
20260505215236 8 302 1.6 6.4 0.00 0.00 0.00 84 1013.5
20260505214236 8 282 1.6 4.8 0.00 0.00 0.00 83 1013.4
20260505213237 9 15 0.0 4.8 0.00 0.00 0.00 83 1013.4
20260505211726 9 287 1.6 4.8 0.00 0.00 0.00 83 1013.4
20260505210724 9 291 1.6 6.4 0.00 0.00 0.00 83 1013.6
20260505205724 9 254 1.6 4.8 0.00 0.00 0.00 83 1013.4
20260505204724 9 282 0.0 6.4 0.00 0.00 0.00 83 1013.5
20260505203654 9 335 0.0 9.7 0.00 0.00 0.00 83 1013.5
20260505202703 9 347 1.6 3.2 0.00 0.00 0.00 82 1013.5
20260505201651 9 284 0.0 4.8 0.00 0.00 0.00 82 1013.4
20260505200651 9 317 0.0 6.4 0.00 0.00 0.00 81 1013.5
20260505195651 10 22 1.6 4.8 0.00 0.00 0.00 80 1013.3
20260505194651 10 306 1.6 4.8 0.00 0.00 0.00 79 1013.3
20260505194130 10 292 1.6 3.2 0.00 0.00 0.00 77 1013.2
20260505192649 10 250 1.6 9.7 0.00 0.00 0.00 76 1013.1
20260505191650 10 279 1.6 6.4 0.00 0.00 0.00 75 1012.9
20260505190648 10 272 0.0 6.4 0.00 0.00 0.00 75 1012.8
20260505185649 11 272 1.6 6.4 0.00 0.00 0.00 74 1012.9
20260505184648 11 10 1.6 9.7 0.00 0.00 0.00 73 1013.0
20260505183649 11 261 1.6 11.3 0.00 0.00 0.00 72 1012.9
20260505182648 11 38 1.6 6.4 0.00 0.00 0.00 70 1012.9
20260505181647 12 278 0.0 6.4 0.00 0.00 0.00 69 1012.8
20260505180647 12 221 3.2 6.4 0.00 0.00 0.00 69 1013.0
20260505180128 12 299 1.6 6.4 0.00 0.00 0.00 68 1012.7
20260505175120 12 291 1.6 9.7 0.00 0.00 0.00 68 1012.5
20260505173615 12 260 0.0 6.4 0.00 0.00 0.00 67 1012.5
20260505172615 12 277 0.0 6.4 0.00 0.00 0.00 67 1012.6
20260505171614 12 281 0.0 12.9 0.00 0.00 0.00 66 1012.6
20260505170615 12 353 1.6 4.8 0.00 0.00 0.00 66 1012.7
20260505165614 13 268 1.6 4.8 0.00 0.00 0.00 67 1012.7
20260505164613 12 275 1.6 9.7 0.00 0.00 0.00 67 1012.6
20260505163613 13 308 3.2 6.4 0.00 0.00 0.00 65 1012.6
20260505163058 13 5 1.6 6.4 0.00 0.00 0.00 66 1012.6
20260505161542 13 291 1.6 6.4 0.00 0.00 0.00 65 1012.6
20260505161022 13 319 3.2 9.7 0.00 0.00 0.00 64 1012.5
20260505152541 14 265 1.6 6.4 0.00 0.00 0.00 60 1012.5
20260505151541 14 285 0.0 9.7 0.00 0.00 0.00 61 1012.5
20260505151031 14 293 1.6 6.4 0.00 0.00 0.00 62 1012.5